Temp_Advection
nan nan nan nan nan nan nan nan nan nan nan nan nan nan nan nan nan nan nan nan nan nan nan nan nan nan nan nan nan nan nan nan nan nan nan nan nan nan nan nan nan nan nan nan nan
nan -1 -1 -1 -1 -1 -1 -1 -1 -1 -1 -1 -0 -0 -0 -1 -1 -2 -1 0 0 0 0 0 0 -0 0 0 0 -0 0 -1 -0 -0 -0 -0 0 0 -0 0 -0 0 0 1 nan
nan -1 -1 -1 -1 -1 -0 -1 -1 -1 -1 -1 -0 -0 -0 -1 -2 -0 0 0 0 0 0 0 0 0 0 0 0 -0 -0 -0 -0 -0 -0 0 0 0 -0 -0 -0 -2 -1 0 nan
nan -0 -1 -1 -1 -1 -1 -0 -0 -0 -1 -1 -1 -0 -0 -0 -0 0 0 0 0 0 0 0 0 0 0 0 0 -0 -0 -0 -0 -0 0 0 0 0 0 -0 -0 -2 -2 -1 nan
nan -0 -1 -1 -1 -1 -1 -1 -0 -0 -0 -1 -1 -0 0 -0 -3 -0 0 0 0 0 0 0 -0 -0 -0 -0 0 0 -0 -0 -0 -0 0 1 0 -0 -0 -0 0 1 2 1 nan
nan -0 -0 -1 -1 -1 -0 -1 -1 -0 0 -0 -0 0 1 -1 -2 -0 0 0 0 0 0 0 -0 -0 -0 -0 -0 -0 -0 -0 -0 -0 0 0 0 0 -0 0 1 2 3 3 nan
nan -1 -1 -0 -1 -1 -0 -0 -1 -1 -0 0 0 0 -1 -5 -0 0 0 0 0 0 0 -0 0 0 -0 -0 -0 0 0 0 0 0 0 -0 0 -0 -0 1 1 1 2 2 nan
nan -1 -1 -1 -1 -1 -0 -0 -0 -1 -0 0 1 0 -2 -1 0 -0 0 0 0 0 -0 -0 0 0 0 0 -0 0 -0 -0 -0 0 0 0 0 -0 0 -0 1 0 0 -0 nan
nan -1 -0 -1 -1 -1 -1 -0 -0 -1 -1 0 0 -0 -1 -1 -1 -0 0 -0 0 -0 0 0 0 0 0 -0 -0 -0 -0 0 -0 0 0 0 0 -0 1 0 0 -0 0 -0 nan
nan -0 -0 -0 -1 -1 -1 -0 0 -0 -0 0 0 -1 -2 -0 -0 -0 -0 0 0 0 1 0 0 -0 -0 0 -0 -0 -0 -0 -0 -0 -0 -0 -0 -0 1 1 1 -0 -0 -0 nan
nan -0 -0 -0 -0 -0 -1 -1 -0 0 -0 -0 -0 -1 -1 -0 -0 -0 0 1 0 1 0 0 0 -0 -1 -0 -0 0 0 0 -0 -0 -0 0 0 0 1 0 -0 -0 -0 -0 nan
nan -1 -1 -0 -0 0 -0 -2 -1 -1 -2 -3 0 -1 -1 0 -1 0 0 -0 0 0 0 -0 -0 -0 -0 -0 0 0 0 0 -0 -0 0 0 0 1 -0 -1 -1 -0 -0 -0 nan
nan -1 -1 -0 -0 -0 -0 -0 0 0 -0 -1 -1 -1 -1 -0 -1 -1 -0 -0 -0 -0 0 0 -0 -0 -0 -0 0 0 0 -0 -0 0 0 -0 -0 -0 -0 -0 -0 -0 -0 -0 nan
nan -0 -0 -1 -0 -1 -0 0 0 0 -0 -1 -0 -0 -0 -0 -1 -1 -0 -0 -0 -0 -0 -0 -0 0 0 -0 -0 -0 -0 -0 0 0 0 -0 0 -0 -0 -0 -0 -0 -0 -0 nan
nan -0 -0 -0 -0 -0 -0 0 0 -0 0 0 0 -0 -0 -0 -0 0 0 1 -0 -0 -0 -0 -0 0 0 -0 -0 -0 -0 0 0 0 0 0 -0 -0 0 -0 -0 -0 -0 -0 nan
nan -0 -0 -0 -0 0 0 0 -0 -0 -1 -0 -0 -0 -0 -0 -0 -1 0 0 0 0 0 -0 -0 -0 -1 -0 -0 -0 -0 -0 -0 0 -0 0 -0 0 -0 -0 -0 -0 -0 -0 nan
nan 0 -0 0 0 -0 0 0 0 0 -1 -0 -0 -0 -0 -0 -0 -1 -1 -2 -0 0 0 -0 0 -0 -0 -0 0 -0 -0 -0 0 0 -0 -0 0 -0 -0 -0 -0 -0 -1 0 nan
nan 0 0 0 0 -0 -0 0 0 0 -0 -0 0 -0 -0 -0 -0 -0 -0 -0 -0 -1 -0 1 -0 1 0 0 0 0 -0 -0 0 0 -0 0 -0 -0 -0 -0 -0 -1 1 1 nan
nan -0 -0 0 0 0 0 -0 0 -0 -0 -1 -0 -0 -0 -0 -0 -0 -1 -0 -0 -0 -0 -0 -0 -0 0 0 -0 0 -0 -0 -0 0 -0 0 -0 -0 -1 -1 -1 -2 -1 -0 nan
nan -0 -1 -0 -0 -0 -0 0 0 0 -0 -0 -1 -1 -1 -1 -0 -0 -0 0 -0 -0 -0 -0 -0 -0 -0 -0 -0 0 0 -0 -0 0 -0 0 -0 -0 -0 -0 -1 -1 -2 -2 nan
nan -1 -2 -0 -1 -3 -0 -0 -0 -0 -0 -0 -0 -0 -0 -0 -1 -1 -1 -0 -0 -0 -0 -0 -0 -1 -0 -1 -0 -0 -0 -0 -0 0 0 -0 -0 0 0 -0 -0 -0 -1 -1 nan
nan -0 0 -1 -3 -1 0 -1 -0 -1 -1 -0 -0 -0 -0 -0 -0 -0 -0 -0 -0 -0 -0 -0 -0 -0 0 0 -0 -0 -0 -0 0 0 0 -0 0 -0 -0 -0 -0 -0 -1 -1 nan
nan -0 -1 -5 -1 0 -1 0 -1 -1 -1 -0 -0 -0 -0 -0 -0 -0 -0 0 -0 -0 0 -0 0 -0 0 -0 -0 -0 -0 -0 -0 -0 0 -0 0 0 0 -0 -1 -1 -1 -1 nan
nan -0 -1 -2 0 0 0 -0 -1 -1 -0 -0 -0 -0 -0 -0 -0 -0 -0 -0 0 -0 -0 -0 -0 -0 -0 -0 -0 -0 -0 -0 -0 0 0 0 0 -0 -0 -1 -1 -1 -1 -1 nan
nan 0 -0 -0 -0 -0 0 -0 -0 -0 -0 -1 -0 -1 -0 -0 -0 -0 -0 -0 -0 -0 -0 -0 -0 -0 -0 -0 -0 -0 -0 -0 -0 -0 0 0 -0 -0 -0 -0 -0 -1 -1 -1 nan
nan -0 -0 0 0 -0 -0 -0 -0 -0 -0 -0 -0 -1 -0 -0 -0 -0 -0 -0 -0 -0 -0 -0 -0 -0 -0 -0 -0 -0 -0 -0 -0 -0 -0 -0 0 -0 -0 -1 -1 -0 -1 -1 nan
nan nan nan nan nan nan nan nan nan nan nan nan nan nan nan nan nan nan nan nan nan nan nan nan nan nan nan nan nan nan nan nan nan nan nan nan nan nan nan nan nan nan nan nan nan
Wind_Speed
25 25 25 25 25 25 24 23 22 22 22 22 20 19 20 21 21 22 24 15 11 10 14 10 7 6 8 8 7 6 3 3 4 5 4 1 3 5 4 17 9 7 10 20 40
25 25 26 26 25 26 26 25 24 22 22 22 20 19 19 21 23 25 20 15 12 8 12 12 11 7 5 7 8 4 4 8 6 5 2 1 1 10 6 11 4 9 8 40 42
27 27 27 27 27 26 26 25 24 23 22 21 20 18 17 17 21 5 3 5 11 11 10 10 9 7 5 5 7 6 6 5 5 13 2 1 2 9 7 6 12 24 33 44 41
29 30 30 30 29 28 26 25 24 22 22 21 19 16 15 11 5 4 5 6 9 10 10 8 9 6 5 5 7 4 9 6 4 5 3 2 2 5 16 7 16 27 38 44 45
31 32 32 32 31 30 27 25 24 22 21 21 19 17 12 9 22 9 8 7 7 8 9 9 11 7 6 5 5 4 4 6 7 3 9 8 7 4 14 10 15 30 43 41 46
33 34 34 34 32 30 28 26 24 23 21 21 19 16 11 6 12 12 19 15 11 10 9 10 6 7 4 3 4 7 5 6 6 7 7 5 1 2 10 12 16 32 44 43 48
34 35 35 34 32 31 28 26 25 25 22 19 19 15 16 29 11 12 15 16 13 11 11 9 4 6 5 2 3 2 4 4 6 7 7 7 3 8 11 16 21 31 35 34 40
36 36 36 34 31 30 29 25 26 22 17 15 15 13 13 13 18 23 18 19 15 12 12 7 5 4 4 4 4 2 3 3 3 6 5 11 8 13 14 22 25 28 30 33 39
37 38 38 34 30 30 27 25 21 14 10 7 9 9 12 10 15 18 25 23 16 11 10 7 3 4 3 6 4 6 3 4 4 2 4 4 6 7 19 26 23 26 30 35 38
40 40 38 34 30 25 27 22 10 8 6 6 8 5 12 2 4 6 19 24 13 12 9 8 5 3 3 4 6 6 4 3 2 4 3 5 8 6 12 23 26 27 26 31 33
40 40 38 33 28 20 27 17 5 4 6 10 5 8 8 4 5 8 13 25 19 9 6 4 4 8 12 6 5 5 3 1 3 4 1 4 6 9 10 12 10 20 25 28 32
41 39 36 29 18 22 15 14 11 11 14 19 27 33 27 18 7 7 13 13 10 6 5 3 9 9 4 5 5 3 3 3 5 6 5 5 9 10 7 13 26 28 28 25 23
42 39 33 26 12 23 12 21 13 9 7 14 11 13 23 20 9 10 15 11 6 6 7 7 4 9 8 5 7 4 6 5 6 2 2 4 6 6 5 9 17 18 17 17 23
42 38 29 22 8 25 11 24 14 4 4 6 4 3 7 9 6 21 13 10 2 11 8 5 6 6 3 4 6 4 9 7 5 3 3 4 4 5 5 9 8 21 22 25 28
42 36 24 15 19 21 28 21 5 2 3 6 2 5 4 7 1 3 21 14 7 7 7 7 6 6 5 7 8 8 6 8 5 5 2 1 2 7 0 7 10 13 22 30 33
42 32 18 14 20 27 24 14 2 2 5 6 7 8 4 5 5 6 4 4 2 5 1 8 2 6 10 5 10 3 5 6 4 4 1 4 5 5 5 8 7 17 19 28 36
42 27 10 21 31 26 19 4 1 3 11 10 6 9 5 6 7 9 5 13 5 3 5 1 3 2 3 4 2 4 6 2 1 0 5 3 4 6 5 7 8 10 24 27 33
40 22 15 25 25 19 11 2 3 8 6 8 7 9 5 10 6 9 4 6 8 7 3 5 2 7 3 8 7 6 8 5 6 4 5 1 5 4 3 9 5 12 22 24 30
38 9 34 30 18 11 3 4 0 6 8 11 6 6 8 8 7 5 9 11 6 10 4 3 3 5 2 1 9 5 5 6 6 2 3 3 6 4 14 16 17 21 18 5 17
34 9 42 27 13 7 4 6 5 12 7 7 8 12 11 12 10 5 7 11 9 7 8 4 3 3 5 1 4 5 5 4 2 6 4 2 3 3 8 8 10 14 20 22 16
26 7 42 23 11 20 4 4 6 20 10 9 10 7 7 8 12 6 13 3 14 10 7 6 2 4 3 6 3 5 3 4 5 4 6 4 2 2 4 6 6 8 18 25 25
20 4 43 17 14 6 4 10 13 19 15 9 6 9 6 11 9 6 6 10 21 12 5 4 3 3 1 2 5 5 3 3 4 5 1 5 3 1 0 4 8 14 22 26 30
13 10 27 32 5 5 9 10 14 16 16 7 12 10 6 7 5 9 6 13 18 11 7 6 3 3 2 1 5 6 4 4 1 1 3 5 4 2 3 7 14 17 27 30 35
8 5 12 18 18 4 5 11 12 17 18 11 10 11 8 9 8 6 6 9 8 13 19 7 2 3 1 3 3 4 6 7 4 1 1 1 6 5 4 6 14 21 22 25 31
11 4 8 4 9 11 6 9 14 12 12 23 7 12 8 7 6 6 7 7 8 6 8 4 3 5 7 5 4 5 8 5 3 4 2 3 3 5 7 6 11 14 23 28 31
6 6 9 8 11 8 7 10 13 13 6 7 9 13 5 3 2 6 7 6 4 3 7 3 2 4 5 9 5 6 5 5 5 5 7 6 6 6 10 13 16 21 23 27 27
9 8 3 6 5 4 2 8 8 10 5 11 8 6 5 3 10 13 16 16 12 8 2 2 2 1 2 5 7 7 4 8 4 1 2 4 1 5 6 10 16 19 23 26 30
Wind_Direction
348 344 341 337 331 326 319 315 309 305 305 305 303 297 292 292 292 289 281 289 275 240 209 207 210 192 195 197 198 177 78 196 232 171 240 123 118 147 132 143 156 211 189 173 161
346 343 340 336 330 326 321 316 312 306 303 301 301 301 293 296 297 289 285 266 239 225 199 205 202 202 201 186 182 130 146 217 217 194 210 359 163 166 149 155 130 107 149 161 162
346 342 339 335 329 325 323 318 313 309 304 299 299 299 292 297 310 293 205 215 200 203 200 203 206 203 195 182 181 171 187 226 252 237 176 180 244 182 163 222 187 160 157 162 167
345 342 339 334 329 327 323 319 314 308 302 298 296 294 287 286 269 175 143 138 159 188 209 216 202 179 155 183 188 160 238 211 262 256 273 231 202 195 187 216 209 181 169 169 173
346 342 338 334 330 327 322 318 311 305 301 296 292 286 281 257 247 230 232 200 194 206 219 204 184 170 172 189 155 181 246 226 243 274 271 269 235 206 226 242 188 178 176 181 179
347 343 339 335 331 325 320 316 311 304 298 293 286 278 260 242 257 237 225 220 219 206 202 190 203 191 180 191 166 201 219 256 245 239 233 203 292 143 214 210 179 184 184 189 186
348 345 340 336 332 324 319 317 312 306 297 283 274 267 250 248 245 228 220 207 209 206 191 175 206 210 172 179 204 235 286 283 212 212 222 168 297 234 193 185 175 178 184 187 191
348 345 341 339 333 324 320 321 315 311 301 273 259 251 251 266 237 229 205 199 199 200 203 205 226 225 191 143 34 116 49 233 272 175 233 168 240 255 177 180 182 179 184 187 194
349 345 342 341 334 328 323 328 314 312 307 265 236 230 263 251 248 232 213 202 205 207 209 210 202 195 132 100 26 4 219 198 274 220 136 153 237 280 178 185 183 187 188 191 197
349 346 342 343 337 335 335 334 304 302 281 248 224 255 249 233 221 225 213 203 202 208 203 207 178 117 66 114 206 195 201 245 233 334 65 187 249 282 208 188 195 195 187 192 195
350 345 342 346 341 347 343 354 344 267 273 234 247 258 287 280 255 202 199 191 202 195 167 177 141 196 202 165 154 141 162 157 278 269 339 238 222 264 221 216 202 198 199 196 199
351 347 342 348 349 359 348 44 13 321 303 282 258 253 252 270 312 187 174 157 167 178 137 73 228 215 138 157 146 126 157 256 276 265 156 259 258 264 179 222 212 207 209 202 199
352 347 344 348 345 356 1 3 346 313 270 290 251 249 247 237 233 226 183 173 134 145 182 170 228 162 153 152 145 164 157 207 209 6 225 127 300 274 233 236 229 239 235 223 213
352 348 344 344 355 349 354 338 332 285 314 272 257 261 194 184 229 223 195 174 147 184 153 216 223 129 140 165 143 184 207 197 217 115 214 151 254 267 255 243 206 227 226 221 217
351 348 344 342 340 347 330 334 317 208 338 346 27 34 186 195 325 207 212 219 169 174 129 233 178 163 173 195 162 214 150 192 195 179 141 251 78 276 167 261 246 227 219 221 221
352 349 350 344 335 334 333 335 196 12 254 351 3 5 357 357 9 359 107 107 132 138 168 208 193 149 198 167 173 162 102 53 53 98 267 200 153 268 204 208 252 247 234 213 218
351 349 6 348 338 327 332 320 272 140 339 355 344 337 324 337 15 17 46 52 44 144 195 349 226 221 146 118 178 109 86 31 16 341 204 228 157 247 243 239 220 236 242 238 224
350 349 357 341 324 325 334 239 239 344 348 341 333 323 45 8 16 18 58 33 20 9 31 176 219 162 187 181 175 184 161 158 181 185 197 164 232 239 317 19 300 294 257 246 235
350 5 1 351 337 335 317 58 37 342 327 322 343 7 3 4 347 79 59 11 5 3 42 8 265 324 117 176 146 201 167 175 99 34 99 212 320 47 28 28 29 34 42 322 236
353 4 3 354 356 1 46 68 58 9 340 356 36 16 12 357 16 50 37 359 340 343 325 346 312 326 293 12 35 149 165 103 11 149 196 336 57 334 356 21 13 11 8 9 18
4 22 360 3 46 56 60 14 357 360 21 32 22 21 25 6 6 54 14 29 1 333 1 350 11 298 2 16 333 353 56 59 119 151 175 136 243 9 349 10 13 0 7 11 7
9 33 12 27 52 14 15 324 16 12 22 39 37 35 23 21 24 68 65 14 348 337 12 310 315 299 97 357 55 68 41 40 151 202 160 137 210 330 66 40 24 12 13 16 18
360 349 23 42 54 354 329 8 36 22 14 23 17 10 21 24 60 50 61 0 12 21 19 325 7 327 98 349 25 41 15 13 277 34 178 141 180 203 311 26 14 14 17 17 19
18 10 357 30 31 4 2 15 10 11 26 30 26 29 15 30 38 43 30 358 7 23 8 12 11 342 295 39 12 330 358 6 6 74 74 130 131 1 34 33 4 7 18 19 21
27 33 6 336 353 347 23 15 25 12 360 18 30 11 8 13 14 20 2 344 349 21 16 29 327 346 307 280 290 269 287 291 265 269 241 125 43 78 41 41 19 12 16 22 19
35 4 352 313 338 348 4 10 11 355 345 16 14 341 7 52 17 323 333 348 303 337 354 355 313 10 299 321 360 293 250 271 251 262 274 265 276 29 35 42 34 26 19 14 14
12 358 5 311 336 353 360 343 333 346 324 7 338 329 310 338 311 289 286 270 253 273 244 253 237 78 249 7 330 310 294 212 183 108 338 234 68 18 28 43 34 23 23 17 9
Height
1509 1506 1503 1500 1496 1493 1490 1488 1485 1482 1480 1478 1477 1476 1474 1472 1470 1468 1465 1465 1464 1464 1467 1469 1471 1473 1474 1476 1478 1479 1489 1493 1483 1484 1477 1473 1474 1476 1477 1478 1480 1482 1478 1481 1486
1508 1504 1501 1497 1494 1491 1487 1484 1482 1479 1477 1475 1474 1472 1470 1468 1466 1462 1461 1460 1461 1462 1464 1467 1469 1471 1473 1473 1476 1477 1488 1482 1471 1471 1472 1472 1473 1474 1477 1478 1480 1480 1479 1482 1487
1507 1503 1498 1494 1491 1487 1484 1481 1478 1475 1473 1471 1470 1469 1468 1466 1463 1456 1455 1456 1458 1460 1462 1465 1467 1469 1471 1472 1473 1475 1480 1472 1467 1468 1470 1471 1472 1473 1474 1478 1474 1474 1478 1483 1487
1506 1502 1497 1492 1487 1483 1480 1477 1474 1472 1470 1467 1466 1466 1465 1465 1467 1455 1455 1456 1457 1459 1460 1461 1464 1467 1469 1471 1469 1473 1469 1468 1467 1467 1469 1469 1469 1470 1471 1469 1471 1472 1473 1478 1482
1506 1500 1495 1490 1484 1479 1475 1472 1470 1467 1466 1464 1463 1462 1462 1462 1453 1455 1455 1455 1456 1457 1458 1459 1461 1464 1467 1467 1468 1469 1467 1466 1466 1467 1467 1467 1467 1469 1467 1467 1469 1473 1476 1476 1480
1504 1499 1493 1487 1482 1476 1472 1468 1465 1463 1461 1460 1459 1458 1459 1458 1448 1449 1450 1453 1454 1455 1456 1458 1459 1462 1463 1465 1466 1464 1465 1464 1464 1464 1464 1464 1466 1466 1463 1465 1467 1469 1473 1476 1478
1502 1496 1491 1485 1479 1473 1468 1464 1461 1458 1456 1455 1454 1454 1452 1441 1445 1445 1446 1449 1451 1453 1455 1457 1459 1461 1462 1463 1463 1463 1466 1463 1462 1461 1462 1462 1466 1463 1461 1464 1467 1469 1474 1477 1482
1501 1494 1487 1482 1476 1469 1465 1461 1456 1453 1451 1449 1450 1450 1442 1437 1437 1440 1443 1446 1449 1451 1453 1456 1457 1459 1461 1462 1463 1464 1468 1472 1460 1458 1458 1461 1471 1453 1459 1462 1465 1468 1471 1476 1479
1499 1493 1485 1479 1472 1466 1461 1457 1453 1450 1448 1447 1448 1448 1437 1431 1432 1435 1439 1442 1446 1449 1452 1454 1455 1456 1458 1465 1474 1475 1479 1473 1463 1457 1457 1462 1466 1451 1455 1458 1464 1466 1468 1472 1476
1497 1490 1483 1477 1470 1464 1459 1454 1450 1449 1448 1447 1447 1450 1433 1430 1429 1430 1432 1439 1443 1446 1450 1451 1453 1458 1463 1468 1484 1477 1474 1471 1465 1461 1458 1463 1461 1452 1454 1456 1457 1462 1465 1469 1474
1496 1489 1481 1475 1469 1464 1458 1452 1453 1450 1448 1442 1439 1433 1429 1428 1427 1428 1429 1434 1440 1443 1448 1448 1456 1460 1455 1458 1461 1465 1467 1468 1467 1461 1460 1460 1460 1454 1452 1455 1457 1461 1464 1467 1471
1494 1487 1480 1475 1470 1467 1463 1459 1465 1463 1447 1434 1431 1430 1426 1428 1429 1426 1427 1432 1435 1442 1443 1450 1453 1449 1451 1457 1459 1463 1467 1471 1468 1460 1463 1463 1462 1453 1453 1449 1447 1449 1456 1463 1470
1493 1485 1479 1474 1470 1469 1464 1464 1464 1461 1455 1427 1423 1422 1422 1426 1427 1423 1426 1426 1430 1440 1442 1449 1443 1441 1448 1455 1461 1465 1469 1467 1466 1461 1459 1463 1468 1455 1448 1448 1449 1451 1455 1461 1465
1492 1484 1478 1473 1472 1469 1467 1464 1461 1460 1459 1428 1422 1418 1419 1421 1421 1420 1421 1424 1428 1435 1441 1444 1439 1442 1447 1451 1455 1463 1457 1457 1461 1467 1475 1460 1481 1460 1452 1447 1447 1447 1451 1455 1460
1490 1483 1478 1474 1474 1471 1468 1462 1460 1460 1461 1422 1420 1421 1419 1419 1416 1415 1419 1421 1426 1429 1436 1439 1436 1441 1446 1446 1449 1455 1451 1456 1458 1465 1464 1462 1473 1464 1453 1452 1444 1444 1448 1451 1454
1489 1482 1477 1475 1473 1469 1464 1460 1461 1465 1448 1424 1424 1426 1423 1420 1417 1416 1417 1421 1423 1427 1429 1431 1430 1433 1435 1437 1441 1442 1452 1460 1466 1470 1479 1466 1469 1469 1457 1444 1441 1437 1442 1447 1451
1487 1481 1477 1474 1470 1466 1462 1461 1464 1484 1439 1440 1438 1433 1432 1430 1425 1425 1431 1437 1445 1437 1437 1430 1431 1429 1429 1436 1439 1443 1457 1478 1477 1480 1481 1463 1468 1455 1443 1440 1437 1436 1436 1439 1445
1486 1479 1479 1474 1468 1463 1462 1461 1461 1458 1456 1447 1441 1435 1437 1436 1434 1437 1441 1451 1449 1449 1445 1441 1440 1431 1428 1432 1440 1444 1449 1468 1468 1481 1474 1462 1465 1451 1443 1441 1440 1438 1438 1439 1441
1484 1479 1478 1470 1465 1463 1462 1472 1483 1469 1464 1456 1442 1443 1443 1442 1442 1442 1460 1467 1461 1459 1456 1450 1437 1429 1426 1425 1429 1441 1449 1443 1464 1466 1470 1466 1459 1446 1446 1444 1442 1441 1441 1444 1445
1484 1479 1478 1469 1465 1463 1464 1472 1475 1474 1467 1460 1458 1459 1457 1454 1448 1446 1463 1474 1470 1464 1460 1459 1449 1433 1429 1425 1428 1431 1434 1451 1462 1469 1468 1467 1468 1470 1463 1456 1451 1447 1446 1446 1445
1487 1483 1483 1472 1469 1467 1487 1486 1480 1478 1472 1469 1470 1467 1468 1468 1461 1464 1477 1474 1473 1467 1463 1462 1456 1441 1434 1443 1442 1440 1440 1443 1447 1455 1456 1469 1479 1463 1464 1460 1456 1453 1451 1448 1444
1494 1495 1490 1478 1479 1491 1497 1494 1486 1484 1477 1477 1476 1475 1475 1475 1474 1475 1485 1483 1479 1474 1474 1469 1466 1456 1447 1448 1446 1447 1452 1452 1449 1452 1455 1456 1478 1463 1462 1461 1458 1454 1450 1450 1447
1505 1504 1499 1488 1509 1511 1501 1496 1493 1490 1488 1484 1485 1482 1480 1482 1483 1482 1485 1487 1483 1479 1482 1475 1469 1460 1445 1450 1450 1457 1458 1458 1454 1454 1451 1457 1478 1464 1463 1461 1460 1455 1451 1448 1444
1512 1514 1508 1506 1513 1512 1508 1506 1503 1498 1496 1494 1494 1489 1485 1487 1487 1490 1490 1489 1487 1485 1480 1475 1474 1473 1462 1470 1474 1465 1465 1463 1461 1461 1461 1460 1464 1467 1465 1466 1463 1459 1457 1453 1447
1522 1526 1527 1526 1517 1516 1514 1514 1510 1508 1503 1501 1498 1499 1496 1494 1491 1494 1493 1490 1488 1487 1486 1486 1484 1481 1474 1475 1474 1472 1471 1468 1466 1462 1464 1463 1465 1469 1471 1470 1469 1465 1458 1454 1452
1530 1532 1528 1526 1523 1520 1518 1519 1516 1513 1510 1508 1508 1505 1501 1501 1501 1499 1497 1495 1492 1488 1489 1489 1487 1486 1482 1472 1473 1470 1469 1469 1467 1464 1462 1463 1466 1470 1470 1470 1468 1465 1462 1458 1457
1533 1532 1531 1528 1525 1524 1523 1521 1519 1517 1512 1512 1511 1508 1503 1502 1500 1497 1495 1492 1490 1491 1490 1490 1488 1486 1483 1479 1474 1478 1464 1464 1462 1461 1465 1464 1471 1471 1471 1470 1470 1468 1465 1462 1458